EW1175 Weather Reports


time (UTC)temp
C
wind
direction
speed
KPH
gust
KPH
rain 1hr
cm
rain 24hr
cm
rain mn
cm
humidity
%
barometer
mb
20260504173105 23 129 0.0 1.6 0.00 0.00 0.00 44 1012.1
20260504171556 24 133 0.0 0.0 0.00 0.00 0.00 44 1012.2
20260504081559 16 176 0.0 1.6 0.00 0.00 0.00 58 1011.2
20260504044540 18 117 0.0 0.0 0.00 0.00 0.00 52 1011.1
20260504043043 19 117 0.0 0.0 0.00 0.00 0.00 50 1011.1
20260504041543 20 117 0.0 0.0 0.00 0.00 0.00 46 1011.1
20260504040041 20 115 0.0 0.0 0.00 0.00 0.00 43 1011.1
20260504034545 21 115 0.0 0.0 0.00 0.00 0.00 39 1010.9
20260504033037 22 115 0.0 0.0 0.00 0.00 0.00 41 1010.8
20260504031540 22 115 0.0 0.0 0.00 0.00 0.00 40 1010.8
20260504030036 23 115 0.0 0.0 0.00 0.00 0.00 37 1011.0
20260504024537 24 115 0.0 1.6 0.00 0.00 0.00 27 1011.0
20260504023032 25 122 0.0 0.0 0.00 0.00 0.00 27 1011.0
20260504021532 25 119 0.0 1.6 0.00 0.00 0.00 28 1011.1
20260504020036 25 120 0.0 1.6 0.00 0.00 0.00 30 1011.2
20260504014530 25 122 0.0 1.6 0.00 0.00 0.00 29 1011.3
20260504013031 25 120 0.0 1.6 0.00 0.00 0.00 29 1011.5
20260504011525 26 129 0.0 1.6 0.00 0.00 0.00 29 1011.7
20260504010021 26 122 0.0 1.6 0.00 0.00 0.00 32 1011.8
20260504004522 26 134 0.0 1.6 0.00 0.00 0.00 32 1012.0
20260504003017 26 115 0.0 4.8 0.00 0.00 0.00 30 1012.2
20260504001524 26 100 0.0 3.2 0.00 0.00 0.00 30 1012.3
20260504000014 26 94 0.0 4.8 0.00 0.00 0.00 30 1012.5
20260503234515 26 121 0.0 3.2 0.00 0.00 0.00 29 1012.6
20260503233017 26 120 0.0 1.6 0.00 0.00 0.00 32 1012.8
20260503231508 26 122 0.0 3.2 0.00 0.00 0.00 31 1013.0
20260503230015 26 127 0.0 1.6 0.00 0.00 0.00 32 1013.2
20260503224503 27 110 0.0 3.2 0.00 0.00 0.00 32 1013.3
20260503223002 27 117 0.0 3.2 0.00 0.00 0.00 31 1013.5
20260503221609 27 130 0.0 3.2 0.00 0.00 0.00 33 1013.7
20260503220056 27 124 0.0 1.6 0.00 0.00 0.00 34 1013.9
20260503214553 27 119 0.0 4.8 0.00 0.00 0.00 34 1014.1
20260503213051 27 119 0.0 4.8 0.00 0.00 0.00 35 1014.3
20260503211550 27 120 0.0 3.2 0.00 0.00 0.00 37 1014.4
20260503210047 26 123 0.0 4.8 0.00 0.00 0.00 36 1014.5
20260503204601 26 134 1.6 6.4 0.00 0.00 0.00 34 1014.8
20260503203045 27 115 0.0 3.2 0.00 0.00 0.00 41 1014.9
20260503201541 26 110 0.0 4.8 0.00 0.00 0.00 44 1015.1
20260503200038 26 147 0.0 3.2 0.00 0.00 0.00 42 1015.3
20260503194541 26 127 0.0 3.2 0.00 0.00 0.00 41 1015.5
20260503193043 25 84 0.0 1.6 0.00 0.00 0.00 44 1015.7
20260503191559 23 128 0.0 3.2 0.00 0.00 0.00 46 1015.9
20260503190032 22 130 0.0 1.6 0.00 0.00 0.00 48 1016.0
20260503184525 22 96 1.6 3.2 0.00 0.00 0.00 50 1016.1
20260503183024 22 115 0.0 3.2 0.00 0.00 0.00 47 1016.2
20260503181529 22 118 0.0 3.2 0.00 0.00 0.00 45 1016.3
20260503180027 22 131 0.0 0.0 0.00 0.00 0.00 44 1016.4
20260503174521 22 127 0.0 0.0 0.00 0.00 0.00 45 1016.5